Location: Culleoka
(33.1312°N, 96.4919°W)
Time: 09:41:16
(UTC+00:00)

H-2A R/B - Pass Details

Date: 06 July 2022
Orbit: 576 x 652 km, 98.5° (Epoch: 13 August)

Event Time Altitude Azimuth Distance (km) Brightness Sun altitude
Rises 03:57:31 0° 347° (NNW) 2,952 6.6 -23.3°
Reaches altitude 10° 04:01:02 10° 317° (NW) 2,049 5.8 -23.7°
Maximum altitude 04:02:46 12° 294° (WNW) 1,909 5.3 -24.0°
Drops below altitude 10° 04:04:30 10° 271° (W) 2,052 5.2 -24.2°
Sets 04:08:03 0° 241° (WSW) 2,962 5.6 -24.6°
